Regional Weather Roundup
Issued by NWS

Home | Current Version | Previous Version | Graphics & Text | Print | Product List | Glossary On
Versions: 1 2 3 4 5 6 7 8 9 10 11 12 13 14 15 16 17 18 19 20 21 22 23 24 25 26 27 28 29 30 31 32 33 34 35 36 37 38 39 40 41 42 43 44 45 46 47 48 49 50
000
ASUS45 KSLC 111510
RWRUT

UTAH REGIONAL WEATHER ROUNDUP
NATIONAL WEATHER SERVICE SALT LAKE CITY UT
800 AM MST MON DEC 11 2017

UTZ001>011-023>025-111600-

NORTHERN UTAH

CITY           SKY/WX    TMP DP  RH WIND       PRES   REMARKS
BRIGHAM CITY   PTCLDY    17  13  84 CALM      30.63R
DUGWAY         FOG        4   1  88 SE1       30.62S VSB 1/2
HILL AFB       NOT AVBL
LOGAN          CLOUDY    18  12  77 CALM      30.63S
OGDEN          PTCLDY    18  13  80 S3        30.60R
SALT LAKE CITY FOG       24  21  88 CALM      30.62R VSB 1/8
TOOELE VALLEY  FOG       18  16  93 CALM      30.63R VSB<1/4
WENDOVER       MOCLDY     9   6  88 CALM      30.62S
HEBER CITY       N/A     10   5  79 CALM      30.57S
WEST JORDAN    PTCLDY    17  16  97 CALM      30.60R

$$

UTZ011>015-024>027-111600-

CENTRAL/NORTHEAST UTAH

CITY           SKY/WX    TMP DP  RH WIND       PRES   REMARKS
PROVO AIRPORT  PTCLDY    13  10  88 E3        30.62R
MOAB/CANYONLAN MOCLDY    14   3  61 CALM      30.56R
DELTA          CLOUDY     9   7  92 CALM      30.61R
PRICE          PTCLDY    18  -5  36 CALM      30.53R
RICHFIELD      CLEAR      5  -2  72 CALM      30.60R
ROOSEVELT      CLOUDY    12   5  73 CALM      30.60S
VERNAL         CLOUDY    11   4  73 W3        30.58R

$$

UTZ013>016-019>022-027-111600-

SOUTHERN UTAH

CITY           SKY/WX    TMP DP  RH WIND       PRES   REMARKS
BRYCE CANYON   PTCLDY     9 -16  31 W9        30.55R WCI  -4
CEDAR CITY     MOCLDY    12   3  67 CALM      30.53S
MILFORD        CLOUDY     6   1  80 SW3       30.57S
ST GEORGE      MOSUNNY   28   6  39 SW3       30.51R
HANKSVILLE     CLOUDY     7  -6  56 CALM      30.61R
KANAB          CLEAR     28 -11  17 N18       30.51S WCI  16
BLANDING         N/A     23  -2  33 CALM      30.57F

$$

REGIONAL REPORTS     COLORADO/ARIZONA

CITY           SKY/WX    TMP DP  RH WIND       PRES   REMARKS
CRAIG, CO      CLOUDY     4  -1  80 CALM      30.55R
GRAND JUNCTION CLOUDY    20   3  48 E8        30.55S WCI  10
RIFLE, CO      CLOUDY    15   3  59 CALM      30.59S
MONTROSE, CO   CLOUDY    15  -1  49 S8        30.59R WCI   4
CORTEZ, CO     CLOUDY     9  -1  64 NE5       30.51S WCI   1
COLORADO CITY    N/A      9  -9  43 CALM      30.51R
PAGE, AZ       CLOUDY    26  11  52 CALM      30.53R HAZE
GRAND CANYON   MOCLDY    16 -12  28 NE7       30.49R WCI   6
KINGMAN, AZ    MOCLDY    32  -1  24 E6        30.38R WCI  26
FLAGSTAFF, AZ  MOCLDY    13  -5  44 CALM      30.48S

$$

REGIONAL REPORTS    NEVADA/IDAHO/WYOMING

CITY           SKY/WX    TMP DP  RH WIND       PRES   REMARKS
LAS VEGAS, NV  PTCLDY    41   3  20 W8        30.39R
ELY, NY        MOCLDY     4 -10  52 S13       30.56R WCI -13
ELKO, NV       MOCLDY    10   6  84 CALM      30.57R
POCATELLO, ID  CLOUDY    10   6  84 N8        30.60S WCI  -2
BURLEY, ID     FOG       17  15  92 MISG      30.58R VSB 1/4
FORT BRIDGER,    N/A     31  -1  25 W12       30.54R WCI  22
EVANSTON, WY   CLOUDY    27   1  32 S5        30.53S WCI  22
ROCK SPRINGS,  CLOUDY    25   4  40 N5        30.51R WCI  19

$$



USA.gov is the U.S. government's official web portal to all federal, state and local government web resources and services.